Latest Coastal Weather Observations for Gannett Cay

IDQ60701

Issued at 3:55 pm EST Sunday 26 October 2014 (issued every 10 minutes, with the page automatically refreshed every 10 minutes)

About coastal observations | Map of coastal stations | Coastal observations for QLD | Marine services | Other Formats
Station Details ID: 200831 Name: GANNET CAY Lat: -21.98 Lon: 152.47 Height: 2.3 m
Data from the previous 72 hours. | See also: Recent months for locations in Queensland
Date/Time
EST
Temp

°C
Wind Pressure Rain
since 9am
mm
Weather Cloud Vis
km
Sea
Height
m
Swell
Dir
 
Speed
knots
Gust
knots
hPa Trend Height
m
Period
s
Dir
26/03:29pm 23.2 ENE 7 - 1015.2 - - - - - - - - -
26/02:29pm 23.2 NE 6 - 1015.3 - - - - - - - - -
26/01:29pm 23.4 E 5 - 1016.0 - - - - - - - - -
26/12:29pm 23.1 ENE 5 - 1016.6 - - - - - - - - -
26/11:30am 23.0 ENE 5 - 1017.3 - - - - - - - - -
26/10:20am 23.1 E 6 - 1018.2 - - - - - - - - -
26/09:26am 23.2 ENE 5 - 1018.6 - - - - - - - - -
26/07:26am 23.1 NNE 8 - 1018.4 - - - - - - - - -
26/06:26am 23.1 NNE 10 - 1017.9 - - - - - - - - -
26/05:26am 22.7 NNE 11 - 1017.3 - - - - - - - - -
26/04:26am 22.6 NNE 13 - 1016.7 - - - - - - - - -
26/03:26am 22.6 NE 11 - 1016.5 - - - - - - - - -
26/02:26am 22.7 NE 13 - 1016.5 - - - - - - - - -
26/01:26am 22.6 NE 13 - 1016.9 - - - - - - - - -
26/12:26am 22.7 ENE 10 - 1018.0 - - - - - - - - -
 
Date/Time
EST
Temp

°C
Wind Pressure Rain
since 9am
mm
Weather Cloud Vis
km
Sea
Height
m
Swell
Dir
 
Speed
knots
Gust
knots
hPa Trend Height
m
Period
s
Dir
25/11:26pm 22.6 ENE 10 - 1018.6 - - - - - - - - -
25/10:26pm 22.7 ENE 10 - 1019.0 - - - - - - - - -
25/09:26pm 22.8 ENE 9 - 1019.1 - - - - - - - - -
25/08:26pm 22.8 NE 10 - 1018.8 - - - - - - - - -
25/07:26pm 22.7 ENE 10 - 1018.4 - - - - - - - - -
25/06:26pm 22.8 ENE 11 - 1018.2 - - - - - - - - -
25/05:26pm 23.3 E 11 - 1017.5 - - - - - - - - -
25/02:26pm 23.5 ESE 12 - 1017.3 - - - - - - - - -
25/02:00pm 23.3 ESE 12 15 1017.6 - - - - - - - - -
25/01:30pm 23.4 ESE 12 15 1017.9 - - - - - - - - -
25/01:26pm 23.3 ESE 11 - 1017.9 - - - - - - - - -
25/01:00pm 23.5 ESE 11 14 1018.1 - - - - - - - - -
25/12:30pm 23.4 ESE 10 13 1018.6 - - - - - - - - -
25/12:26pm 23.5 SE 10 - 1018.8 - - - - - - - - -
25/12:00pm 23.3 ESE 10 11 1019.1 - - - - - - - - -
25/11:30am 23.2 ESE 10 13 1019.6 - - - - - - - - -
25/11:26am 23.3 ESE 11 - 1019.7 - - - - - - - - -
25/11:00am 23.2 ESE 11 13 1019.8 - - - - - - - - -
25/10:30am 23.2 ESE 10 12 1020.1 - - - - - - - - -
25/10:26am 23.2 ESE 11 - 1020.2 - - - - - - - - -
25/10:00am 23.3 E 10 12 1020.3 - - - - - - - - -
25/09:30am 23.4 E 9 11 1020.3 - - - - - - - - -
25/09:26am 23.2 E 9 - 1020.4 - - - - - - - - -
25/09:00am 22.8 ENE 9 10 1020.1 - - - - - - - - -
25/08:30am 22.9 ENE 8 11 1020.3 - - - - - - - - -
25/08:26am 22.8 ENE 8 - 1020.4 - - - - - - - - -
25/08:00am 22.8 ENE 9 10 1020.3 - - - - - - - - -
25/07:30am 23.1 E 10 12 1020.2 - - - - - - - - -
25/07:26am 22.9 E 11 - 1020.3 - - - - - - - - -
25/07:00am 22.9 E 12 15 1020.0 - - - - - - - - -
25/06:30am 22.6 ENE 12 14 1019.7 - - - - - - - - -
25/06:26am 22.7 E 13 - 1019.7 - - - - - - - - -
25/06:00am 22.8 ENE 11 14 1019.4 - - - - - - - - -
25/05:30am 22.5 ENE 10 13 1019.2 - - - - - - - - -
25/05:26am 22.5 ENE 10 - 1019.3 - - - - - - - - -
25/05:00am 22.4 ENE 11 13 1019.0 - - - - - - - - -
25/04:30am 22.4 ENE 13 15 1018.7 - - - - - - - - -
25/04:26am 22.4 ENE 13 - 1018.8 - - - - - - - - -
25/04:00am 22.4 E 11 13 1018.6 - - - - - - - - -
25/03:30am 22.4 E 12 15 1018.5 - - - - - - - - -
25/03:26am 22.5 ENE 13 - 1018.5 - - - - - - - - -
25/03:00am 22.4 ENE 12 15 1018.5 - - - - - - - - -
25/02:30am 22.5 ENE 12 14 1018.4 - - - - - - - - -
25/02:26am 22.5 ENE 12 - 1018.5 - - - - - - - - -
25/02:00am 22.5 ENE 11 13 1018.5 - - - - - - - - -
25/01:30am 22.6 E 10 13 1018.7 - - - - - - - - -
25/01:26am 22.6 E 10 - 1018.9 - - - - - - - - -
25/01:00am 22.6 E 10 12 1019.0 - - - - - - - - -
25/12:30am 22.6 E 11 13 1019.5 - - - - - - - - -
25/12:26am 22.7 E 11 - 1019.7 - - - - - - - - -
25/12:00am 22.8 E 12 13 1019.8 - - - - - - - - -
 
Date/Time
EST
Temp

°C
Wind Pressure Rain
since 9am
mm
Weather Cloud Vis
km
Sea
Height
m
Swell
Dir
 
Speed
knots
Gust
knots
hPa Trend Height
m
Period
s
Dir
24/11:30pm 22.8 E 13 15 1020.2 - - - - - - - - -
24/11:26pm 22.8 E 13 - 1020.3 - - - - - - - - -
24/11:00pm 22.9 E 15 17 1020.4 - - - - - - - - -
24/10:30pm 22.9 E 17 19 1020.4 - - - - - - - - -
24/10:26pm 22.9 E 16 - 1020.5 - - - - - - - - -
24/10:00pm 22.9 E 17 19 1020.3 - - - - - - - - -
24/09:30pm 23.0 E 16 18 1020.4 - - - - - - - - -
24/09:26pm 23.1 E 16 - 1020.5 - - - - - - - - -
24/09:00pm 23.1 E 17 19 1020.5 - - - - - - - - -
24/08:30pm 22.9 E 15 17 1020.2 - - - - - - - - -
24/08:26pm 23.0 E 15 - 1020.3 - - - - - - - - -
24/08:00pm 22.9 E 17 19 1019.8 - - - - - - - - -
24/07:30pm 23.0 ESE 18 20 1019.6 - - - - - - - - -
24/07:26pm 23.0 ESE 18 - 1019.7 - - - - - - - - -
24/07:00pm 23.1 E 17 20 1019.3 - - - - - - - - -
24/06:30pm 23.0 ESE 16 19 1019.1 - - - - - - - - -
24/06:26pm 22.9 ESE 16 - 1019.2 - - - - - - - - -
24/06:00pm 23.0 ESE 15 17 1018.9 - - - - - - - - -
24/05:30pm 23.1 ESE 17 19 1018.6 - - - - - - - - -
24/05:26pm 23.2 ESE 17 - 1018.7 - - - - - - - - -
24/05:00pm 23.3 ESE 17 20 1018.2 - - - - - - - - -
24/04:30pm 23.4 SE 17 19 1018.0 - - - - - - - - -
24/04:26pm 23.5 ESE 17 - 1018.1 - - - - - - - - -
24/04:00pm 23.6 ESE 16 18 1018.1 - - - - - - - - -
24/03:30pm 23.5 ESE 14 16 1018.1 - - - - - - - - -
24/03:26pm 23.4 E 13 - 1018.2 - - - - - - - - -
24/03:00pm 23.7 ESE 11 14 1018.2 - - - - - - - - -
24/02:30pm 23.7 SE 11 13 1018.4 - - - - - - - - -
24/02:26pm 23.7 SE 12 - 1018.5 - - - - - - - - -
24/02:00pm 23.4 SE 14 16 1018.7 - - - - - - - - -
24/01:30pm 23.2 SE 15 18 1019.0 - - - - - - - - -
24/01:26pm 23.5 SE 14 - 1019.1 - - - - - - - - -
24/01:00pm 23.6 ESE 13 15 1019.3 - - - - - - - - -
24/12:30pm 23.6 ESE 13 15 1019.6 - - - - - - - - -
24/12:26pm 23.6 ESE 13 - 1019.7 - - - - - - - - -
24/12:00pm 23.6 ESE 11 14 1019.9 - - - - - - - - -
24/11:30am 23.4 ESE 12 14 1020.0 - - - - - - - - -
24/11:26am 23.5 ESE 12 - 1020.0 - - - - - - - - -
24/11:00am 23.3 ESE 13 16 1020.1 - - - - - - - - -
24/10:30am 22.9 SE 15 17 1020.0 - - - - - - - - -
24/10:26am 22.8 SE 15 - 1020.2 - - - - - - - - -
24/10:00am 22.7 SE 15 17 1020.3 - - - - - - - - -
24/09:30am 22.9 ESE 15 18 1020.2 - - - - - - - - -
24/09:26am 22.8 ESE 14 - 1020.3 - - - - - - - - -
24/09:00am 22.8 ESE 14 16 1020.4 - - - - - - - - -
24/08:30am 22.6 SE 13 16 1020.6 - - - - - - - - -
24/08:26am 22.6 SE 14 - 1020.7 - - - - - - - - -
24/08:00am 22.5 SE 13 15 1020.5 - - - - - - - - -
24/07:30am 22.4 SE 12 14 1020.3 - - - - - - - - -
24/07:26am 22.4 SE 12 - 1020.3 - - - - - - - - -
24/07:00am 22.4 SE 12 14 1020.0 - - - - - - - - -
24/06:30am 22.2 SE 10 13 1019.8 - - - - - - - - -
24/06:26am 22.2 SE 10 - 1019.8 - - - - - - - - -
24/06:00am 22.2 ESE 10 12 1019.3 - - - - - - - - -
24/05:30am 21.9 SE 9 11 1019.1 - - - - - - - - -
24/05:26am 21.9 SE 9 - 1019.2 - - - - - - - - -
24/05:00am 21.8 ESE 9 12 1018.6 - - - - - - - - -
24/04:30am 21.9 ESE 9 11 1018.4 - - - - - - - - -
24/04:26am 21.8 ESE 9 - 1018.5 - - - - - - - - -
24/04:00am 21.8 E 9 11 1018.1 - - - - - - - - -
24/03:30am 21.8 ESE 8 11 1018.4 - - - - - - - - -
24/03:26am 21.8 ESE 8 - 1018.4 - - - - - - - - -
24/03:00am 21.9 ESE 8 10 1018.6 - - - - - - - - -
24/02:30am 21.9 E 10 12 1018.2 - - - - - - - - -
24/02:26am 21.9 E 10 - 1018.3 - - - - - - - - -
24/02:00am 22.0 ESE 10 11 1018.4 - - - - - - - - -
24/01:30am 22.1 E 9 12 1018.7 - - - - - - - - -
24/01:26am 22.0 E 9 - 1018.9 - - - - - - - - -
24/01:00am 22.2 E 10 13 1019.2 - - - - - - - - -
24/12:30am 22.3 E 11 13 1019.4 - - - - - - - - -
24/12:26am 22.3 E 10 - 1019.5 - - - - - - - - -
24/12:00am 22.3 E 11 13 1019.6 - - - - - - - - -
 
Date/Time
EST
Temp

°C
Wind Pressure Rain
since 9am
mm
Weather Cloud Vis
km
Sea
Height
m
Swell
Dir
 
Speed
knots
Gust
knots
hPa Trend Height
m
Period
s
Dir
23/11:30pm 22.5 E 12 14 1019.9 - - - - - - - - -
23/11:26pm 22.6 E 12 - 1020.0 - - - - - - - - -
23/11:00pm 22.6 E 12 14 1020.0 - - - - - - - - -
23/10:30pm 22.6 E 11 14 1020.0 - - - - - - - - -
23/10:26pm 22.7 E 11 - 1020.1 - - - - - - - - -
23/10:00pm 22.6 E 12 13 1019.7 - - - - - - - - -
23/09:30pm 22.5 E 14 16 1019.7 - - - - - - - - -
23/09:26pm 22.6 E 13 - 1019.8 - - - - - - - - -
23/09:00pm 22.5 ESE 13 15 1019.8 - - - - - - - - -
23/08:30pm 22.5 ESE 13 15 1019.5 - - - - - - - - -
23/08:26pm 22.5 SE 14 - 1019.6 - - - - - - - - -
23/08:00pm 22.4 ESE 13 16 1019.2 - - - - - - - - -
23/07:30pm 22.5 ESE 13 15 1018.8 - - - - - - - - -
23/07:26pm 22.5 ESE 12 - 1018.9 - - - - - - - - -
23/07:00pm 22.5 ESE 13 15 1018.6 - - - - - - - - -
23/06:30pm 22.4 ESE 14 16 1018.3 - - - - - - - - -
23/06:26pm 22.4 ESE 14 - 1018.3 - - - - - - - - -
23/06:00pm 22.5 ESE 15 18 1018.1 - - - - - - - - -
23/05:30pm 22.6 ESE 15 18 1017.9 - - - - - - - - -
23/05:26pm 22.7 ESE 15 - 1017.9 - - - - - - - - -
23/05:00pm 23.1 ESE 15 18 1017.6 - - - - - - - - -
23/04:30pm 22.9 SE 16 17 1017.3 - - - - - - - - -
23/04:26pm 22.9 SE 16 - 1017.3 - - - - - - - - -
23/04:00pm 22.9 SE 16 19 1017.0 - - - - - - - - -

Other Formats:

Comma delimited format used in spreadsheet applications
http://www.bom.gov.au/fwo/IDQ60701/IDQ60701.94379.axf

JavaScript Object Notation format (JSON) in row-major order
http://www.bom.gov.au/fwo/IDQ60701/IDQ60701.94379.json